SCP
0 0 0 0 0 0 0 0 0 0 0 0 0 0 0 0 0 0 0 0 0 0 0 0 0 0 0 0 0 0 0 0 0 0 1 1 1 1 1 1 0 0 0
0 0 0 0 0 0 0 0 0 0 0 0 0 0 0 0 0 0 0 0 0 0 0 0 0 0 0 0 0 0 0 0 0 0 1 1 1 1 1 1 0 0 0
0 0 0 0 0 0 0 0 0 0 0 0 0 0 0 0 0 0 0 0 0 0 0 0 0 0 0 0 0 0 0 0 0 0 1 2 2 2 1 1 0 0 0
0 0 0 0 0 0 0 0 0 0 0 0 0 0 0 0 0 0 0 0 0 0 0 0 0 0 0 0 0 0 0 0 0 0 1 2 3 2 1 1 0 0 0
0 0 0 0 0 0 0 0 0 0 0 0 0 0 0 0 0 0 0 0 0 0 0 0 0 0 0 0 0 0 0 0 0 0 0 1 2 2 1 1 0 0 0
0 0 0 0 0 0 0 0 0 0 0 0 0 0 0 0 0 0 0 0 0 0 0 0 0 0 0 0 0 0 0 0 0 0 0 1 1 1 1 1 0 0 0
0 0 0 0 0 0 0 0 0 0 0 0 0 0 0 0 0 0 0 0 0 0 0 0 0 0 0 0 0 0 0 0 0 0 0 0 1 1 1 1 0 0 0
0 0 0 0 0 0 0 0 0 0 0 0 0 0 0 0 0 0 0 0 0 0 0 0 0 0 0 0 0 0 0 0 0 0 0 0 1 1 1 1 0 0 0
0 0 0 0 0 0 0 0 0 0 0 0 0 0 0 0 0 0 0 0 0 0 0 0 0 0 0 0 0 0 0 0 0 0 0 0 0 1 1 1 0 0 0
0 0 0 0 0 0 0 0 0 0 0 0 0 0 0 0 0 0 0 0 0 0 0 0 0 0 0 0 0 0 0 0 0 0 0 0 0 0 0 0 0 0 0
0 0 0 0 0 0 0 0 0 0 0 0 0 0 0 0 0 0 0 0 0 0 0 0 0 0 0 0 0 0 0 0 0 0 0 0 0 1 0 0 0 0 0
0 0 0 0 0 0 0 0 0 0 0 0 0 0 0 0 0 0 0 0 0 0 0 0 0 0 0 0 0 0 0 0 0 0 0 0 0 1 1 0 0 0 0
0 0 0 0 0 0 0 0 0 0 0 0 0 0 0 0 0 0 0 0 0 0 0 0 0 0 0 0 0 0 0 0 0 0 0 0 0 0 1 1 0 0 0
0 0 0 0 0 0 0 0 0 0 0 0 0 0 0 0 0 0 0 0 0 0 0 0 0 0 0 0 0 0 0 0 0 0 0 0 0 0 0 1 0 0 0
0 0 0 0 0 0 0 0 0 0 0 0 0 0 0 0 0 0 0 0 0 0 0 0 0 0 0 0 0 0 0 0 0 0 0 0 0 0 0 0 0 0 0
0 0 0 0 0 0 0 0 0 0 0 0 0 0 0 0 0 0 0 0 0 0 0 0 0 0 0 0 0 0 0 0 0 0 0 0 0 0 0 0 0 0 0
0 0 0 0 0 0 0 0 0 0 0 0 0 0 0 0 0 0 0 0 0 0 0 0 0 0 0 0 0 0 0 0 0 0 0 0 0 0 0 0 0 0 0
0 0 0 0 0 0 0 0 0 0 0 0 0 0 0 0 0 0 0 0 0 0 0 0 0 0 0 0 0 0 0 0 0 0 0 0 0 0 0 0 0 0 0
0 0 0 0 0 0 0 0 0 0 0 0 0 0 0 0 0 0 0 0 0 0 0 0 0 0 0 0 0 0 0 0 0 0 0 0 0 0 0 0 0 0 0
0 0 0 0 0 0 0 0 0 0 0 0 0 0 0 0 0 0 0 0 0 0 0 0 0 0 0 0 0 0 0 0 0 0 0 0 0 0 0 0 0 0 0
0 0 0 0 0 0 0 0 0 0 0 0 0 0 0 0 0 0 0 0 0 0 0 0 0 0 0 0 0 0 0 0 0 0 0 0 0 0 0 0 0 0 0
0 0 0 0 0 0 0 0 0 0 0 0 0 0 0 0 0 0 0 0 0 0 0 0 0 0 0 0 0 0 0 0 0 0 0 0 0 0 0 0 0 0 0
0 0 0 0 0 0 0 0 0 0 0 0 0 0 0 0 0 0 0 0 0 0 0 0 0 0 0 0 0 0 0 0 0 0 0 0 0 0 0 0 0 0 0
0 0 0 0 0 0 0 0 0 0 0 0 0 0 0 0 0 0 0 0 0 0 0 0 0 0 0 0 0 0 0 0 0 0 0 0 0 0 0 0 0 0 0
0 0 0 0 0 0 0 0 0 0 0 0 0 0 0 0 0 0 0 0 0 0 0 0 0 0 0 0 0 0 0 0 0 0 0 0 0 0 0 0 0 0 0
0 0 0 0 0 0 0 0 0 0 0 0 0 0 0 0 0 0 0 0 0 0 0 0 0 0 0 0 0 0 0 0 0 0 0 0 0 0 0 0 0 0 0
Wind_Speed
3 3 3 4 4 4 4 5 5 5 5 5 6 6 6 6 6 5 5 6 5 5 5 5 6 6 4 4 3 3 3 3 4 4 2 1 3 7 6 6 6 6 6
4 4 4 4 5 5 5 6 6 6 6 6 6 6 7 7 6 6 7 7 6 7 6 6 7 6 6 5 4 4 4 4 4 4 3 2 3 7 8 8 6 5 5
4 4 4 5 5 6 7 7 6 7 7 7 6 7 7 7 7 7 7 7 7 7 7 7 7 6 7 5 5 5 4 4 4 4 4 2 2 6 8 7 7 5 5
4 4 5 6 6 7 7 6 7 7 7 7 7 7 8 8 8 8 8 8 8 8 8 7 7 7 7 7 6 6 5 4 4 3 3 3 3 5 7 8 6 4 3
4 5 6 6 6 6 6 7 7 7 8 7 7 7 8 7 8 9 8 9 8 8 8 7 8 10 12 9 6 6 6 5 4 4 4 3 4 7 7 5 7 6 3
4 5 6 6 5 6 6 7 7 7 7 7 8 8 9 9 11 14 11 8 8 8 8 8 9 11 13 14 14 12 11 8 7 6 5 5 6 7 6 8 8 7 4
5 5 5 5 6 6 7 7 7 7 7 8 8 8 9 11 16 17 18 11 9 9 10 9 10 11 10 7 10 14 14 15 13 8 7 7 7 8 9 10 9 8 4
5 5 5 5 6 7 7 8 8 7 8 8 9 9 10 12 16 16 18 13 9 10 11 11 10 10 10 8 6 7 8 9 11 8 8 7 6 8 11 11 10 7 5
5 5 5 5 7 7 8 9 8 8 9 9 9 10 10 12 15 16 15 8 8 10 11 11 11 11 13 13 8 7 7 6 8 9 9 8 9 10 10 9 10 10 8
5 6 6 6 7 8 9 9 8 8 9 9 10 10 10 10 13 15 13 6 8 8 8 9 14 14 13 13 10 8 8 7 6 6 5 5 6 9 14 13 13 12 9
5 6 6 6 7 8 7 7 8 9 9 9 10 10 9 9 11 13 12 6 7 7 6 6 7 13 14 13 11 8 10 8 7 7 6 5 4 6 9 9 9 11 10
5 6 7 7 8 8 8 9 8 8 9 9 8 8 6 6 8 9 11 10 8 7 6 6 6 11 12 12 10 10 11 9 5 6 6 6 6 6 7 8 8 6 5
5 6 7 8 7 7 8 9 9 7 7 7 6 6 6 5 5 9 9 9 9 6 6 8 8 9 9 8 10 11 9 6 6 6 7 7 5 5 6 6 7 7 6
5 7 7 8 9 8 7 6 7 7 7 7 6 6 5 4 4 4 4 4 5 4 3 5 6 6 5 5 5 5 5 6 6 6 6 5 5 5 5 6 7 8 7
6 6 7 7 8 8 8 7 8 8 9 8 6 5 4 5 5 6 5 4 3 2 1 1 1 2 2 2 3 3 3 4 4 4 5 5 5 6 5 5 7 8 7
5 6 6 6 7 7 8 10 11 11 13 12 11 7 5 7 7 7 7 7 6 2 1 1 2 2 3 3 3 3 3 4 4 5 5 5 6 6 6 5 7 7 8
5 6 6 6 7 7 8 8 11 12 11 9 9 9 9 7 7 7 6 6 5 2 1 1 2 2 3 4 4 4 5 5 4 4 5 5 6 6 6 7 8 8 7
6 7 7 6 7 7 8 8 8 8 8 6 5 8 8 8 7 6 4 3 3 2 2 2 2 2 2 3 4 4 4 4 4 4 5 5 6 6 7 7 8 8 8
5 5 5 6 6 7 7 8 7 7 6 6 4 3 5 5 5 5 3 3 3 3 3 3 3 3 2 3 3 3 4 4 5 5 5 6 6 6 6 7 7 11 9
5 9 9 6 7 7 7 7 7 6 6 5 5 4 2 2 3 3 4 4 4 4 4 4 4 4 3 3 3 3 3 4 5 5 5 6 6 7 8 9 9 9 9
4 6 11 8 6 7 7 7 7 6 6 5 5 4 5 4 5 5 5 5 6 6 5 5 4 4 4 3 3 4 4 4 4 5 5 6 6 6 6 7 8 9 9
4 4 5 6 6 6 8 7 6 6 6 6 5 4 5 4 4 4 5 5 6 6 5 5 4 4 4 4 4 4 5 5 5 5 5 6 6 6 7 7 8 8 9
4 4 5 5 5 8 8 7 6 6 6 5 5 4 3 3 4 4 4 5 5 5 5 5 5 5 4 5 5 5 6 6 6 7 7 6 6 7 7 8 10 10 10
4 4 4 4 5 6 7 8 7 7 6 6 5 4 4 4 4 4 4 4 4 4 4 4 5 7 8 5 4 5 5 6 6 7 9 8 7 7 7 8 9 11 11
3 3 3 4 5 6 7 7 7 7 6 6 5 4 4 4 4 4 4 3 3 3 4 4 4 5 7 7 6 5 7 9 8 7 7 7 8 8 8 9 9 10 9
1 2 3 3 4 5 6 7 7 8 7 6 5 5 4 4 4 4 4 3 3 2 3 3 3 4 5 5 6 7 8 8 8 9 7 6 7 7 8 7 10 10 11
Wind_Direction
233 241 251 254 257 261 262 265 263 264 270 275 278 283 287 289 289 290 289 291 287 285 281 268 259 256 253 248 230 218 217 203 236 259 247 187 141 142 125 113 110 105 109
237 241 247 253 257 259 259 259 256 256 257 256 259 264 268 274 274 275 278 285 278 278 275 270 264 262 252 244 233 225 221 216 220 244 241 193 153 153 140 131 119 110 103
241 250 262 267 265 261 260 259 257 255 256 255 254 255 258 260 261 261 262 267 265 263 263 261 258 255 253 245 235 230 225 227 214 227 236 207 145 149 138 123 115 109 105
249 258 266 268 265 265 267 268 266 262 259 258 255 251 252 253 254 255 256 259 261 262 259 257 253 244 242 241 236 229 222 222 218 226 232 208 163 155 145 142 135 121 114
257 264 265 269 271 272 275 275 274 270 270 261 259 258 254 253 254 250 247 254 255 259 260 256 253 255 251 242 234 221 213 214 211 217 226 205 174 169 163 152 145 133 105
260 266 271 279 282 281 281 282 281 277 273 268 263 261 260 264 264 258 252 246 243 246 253 255 259 266 263 255 245 230 211 205 207 208 219 212 197 178 161 154 149 149 150
266 271 278 283 286 286 290 293 286 282 277 273 268 264 263 263 261 259 258 251 239 240 241 245 258 260 257 245 244 239 226 216 204 198 211 215 200 184 166 163 166 159 149
277 281 284 287 290 291 290 287 285 280 279 276 273 268 266 268 264 257 257 255 244 240 237 234 236 244 247 238 236 235 224 215 209 203 206 213 208 192 178 170 158 129 103
286 287 287 291 294 296 296 293 290 288 286 279 274 271 268 271 268 263 258 250 245 244 240 235 231 233 235 229 222 224 221 220 213 201 199 209 205 192 171 152 151 150 147
286 287 287 290 293 295 294 293 291 287 285 284 281 275 269 270 271 268 261 246 245 246 241 238 234 229 227 220 212 208 209 204 185 182 185 194 195 186 175 172 166 163 153
288 291 293 294 294 294 293 293 294 292 290 286 284 283 277 273 277 274 269 246 240 242 238 233 231 224 221 217 208 203 205 188 181 180 178 184 188 185 182 179 175 169 163
297 301 300 298 300 308 301 299 296 292 292 290 289 290 286 282 282 284 282 265 243 234 237 233 227 222 220 215 207 205 198 181 171 174 180 191 196 195 186 180 176 170 154
310 307 303 303 301 298 297 299 300 295 292 290 288 288 290 291 295 302 302 292 268 236 234 231 225 218 211 207 203 190 177 174 174 176 189 196 195 189 176 167 156 132 104
309 305 304 307 307 305 300 293 293 293 294 289 285 284 285 289 297 312 312 307 293 253 240 235 221 200 181 170 169 173 173 180 176 183 188 186 174 173 177 168 161 150 133
304 302 304 304 303 306 303 294 289 280 273 269 272 265 270 282 279 290 300 302 296 268 225 182 156 148 146 147 143 151 165 170 175 174 175 171 170 172 171 164 155 148 147
305 306 305 307 306 305 307 309 298 285 283 266 249 241 249 253 279 291 299 303 305 281 212 186 174 167 168 174 171 168 177 183 182 172 170 170 170 171 166 161 157 158 155
293 299 303 304 306 307 307 306 309 313 306 281 255 246 240 255 267 276 293 305 302 295 238 218 198 188 187 181 185 187 187 187 178 169 169 169 166 164 164 164 165 161 156
291 299 305 299 301 304 303 300 296 300 307 306 275 248 244 245 254 262 280 310 298 280 244 236 223 213 198 189 189 191 188 175 173 173 168 166 164 162 164 167 169 165 158
290 292 298 300 301 301 300 299 298 298 295 294 294 272 248 244 249 253 241 237 251 257 251 249 240 226 213 202 197 193 187 181 177 171 170 169 166 163 166 170 169 164 158
284 304 313 306 306 307 306 303 303 303 299 296 292 273 216 198 234 232 221 227 236 245 247 244 242 234 223 211 201 188 182 178 173 172 171 171 168 167 168 170 170 169 171
283 300 311 312 306 306 307 304 303 301 298 295 287 274 224 218 239 239 231 228 229 233 235 237 236 233 224 215 202 192 185 183 179 173 168 168 167 166 168 168 168 170 170
278 285 294 302 307 310 312 308 306 303 300 300 294 294 261 243 251 252 245 239 231 228 225 223 227 226 218 209 199 192 188 186 182 174 167 166 165 165 165 164 165 168 169
282 291 299 309 313 316 319 315 314 311 305 303 301 297 286 269 269 266 258 253 242 231 225 220 223 228 224 212 199 191 191 192 186 174 165 162 163 165 166 167 170 171 172
286 293 308 322 325 323 321 319 317 316 313 311 309 309 304 292 286 285 277 269 261 249 234 222 220 221 218 211 205 200 198 190 178 174 167 163 164 166 166 170 173 175 175
291 310 330 334 331 329 325 322 322 321 319 319 317 312 306 302 300 304 303 294 283 268 255 233 220 218 216 208 197 190 189 183 175 164 160 160 164 167 169 171 173 173 171
321 350 353 343 334 332 330 327 324 324 321 321 318 313 309 308 305 301 302 302 295 282 271 248 220 207 199 194 182 165 163 166 165 161 158 160 164 170 170 172 174 174 170